Starlink 31700

operational
NORAD ID: 59436 Int'l Des: 2024-065 Owner: SPXS Country: US Constellation: starlink
LEOCIRCULAR

Über Starlink 31700

Beschreibung wird geladen...

Live-Position

3D-Globus wird geladen...

Nächste Überflüge

Höhenverlauf

Altitude vs Time

uPlot chart will show altitude changes over time

Zweizeiliger Elementsatz

1 59436U 24065R 25305.61854738 .00000884 00000-0 41976-4 0 9992
2 59436 53.1601 156.3751 0001262 95.0346 265.0799 15.30196484 89322
Epoch: 1. Nov. 2025 • Age: 15 hours

Aktueller Status

Höhe 492.6 km
Geschwindigkeit 7.62 km/s
Subsatellitenpunkt -48.25°S, 38.29°W
Startdatum 7. Apr. 2024
Alter 1.5 years
Typ internet

Technische Details

Klassifizierung Payload
Masse 730.00 kg
Trockenmasse 700.00 kg
Gesamtmasse 730.00 kg
Länge 0.30 m
Durchmesser 4.10 m
Spannweite 29.00 m
Form Box + pan
Hersteller SPXS
Bus-Typ Starlink V2M
Phasenstatus In Orbit
Besitzer/Staat SPXS/US

Große Konstellationen

Loading constellations...